Mazatlan Airport, Mexico

11:07 AM MDT on September 26, 2017 (GMT -0600)
Gen Rafael Buelna International

Weather History for MMMZ - September, 2013

Change the Weather History Date:

Tuesday, September 10, 2013

  Actual Average Record
Temperature  
Mean Temperature 82 °F -  
Max Temperature 89 °F 87 °F 93 °F (2017)
Min Temperature 75 °F 74 °F 71 °F (1997)
Cooling Degree Days 17    
Growing Degree Days 32 (Base 50)    
Moisture  
Dew Point 75 °F    
Average Humidity 83    
Maximum Humidity 95    
Minimum Humidity 57    
Precipitation  
Precipitation 0.00 in - - ()
Sea Level Pressure  
Sea Level Pressure 29.81 in    
Wind  
Wind Speed 7 mph ()    
Max Wind Speed 12 mph    
Max Gust Speed -    
Visibility 11.2 miles    
Events Rain    
Averages and records for this station are not official NWS values.
T = Trace of Precipitation, MM = Missing Value Source: Averaged Metar Reports

Daily Weather History Graph

Daily Weather History Graph

Search for Another Location

Airport or City:

Trip Planner

Search our weather history database for the weather conditions in past years. The results will help you decide how hot, cold, wet, or windy it might be!

Date:

Astronomy

Sep. 10, 2013 Rise Set
Actual Time 6:50 AM MDT 7:13 PM MDT
Civil Twilight 6:27 AM MDT 7:35 PM MDT
Nautical Twilight 6:01 AM MDT 8:02 PM MDT
Astronomical Twilight 5:34 AM MDT 8:28 PM MDT
Moon 11:38 AM MDT (9/10) 11:00 PM MDT (9/10)
Length of Visible Light 13h 08m
Length of Day
12h 23m
Waxing Crescent, 29% of the Moon is Illuminated
Sep 10
Waxing Crescent
Sep 12
First Quarter
Sep 19
Full
Sep 26
Last Quarter
Oct 4
New

Hourly Weather History & Observations

Time (MDT) Temp. Heat Index Dew Point Humidity Pressure Visibility Wind Dir Wind Speed Gust Speed Precip Events Conditions
12:47 AM 75.2 °F - 73.4 °F 94% 29.84 in 5.0 mi SE 8.1 mph - N/A Rain Rain
1:50 AM 75.2 °F - 73.4 °F 94% 29.84 in 5.0 mi NE 8.1 mph - N/A Rain Rain
2:49 AM 75.2 °F - 73.4 °F 94% 29.81 in 5.0 mi NE 9.2 mph - N/A Rain Rain
3:00 AM 75 °F - 74 °F 95% 29.82 in - ENE 4.5 mph - -  
3:46 AM 75.2 °F - 73.4 °F 94% 29.80 in 6.0 mi NE 9.2 mph - N/A Rain Light Rain
4:45 AM 75.2 °F - 73.4 °F 94% 29.80 in 8.0 mi ENE 5.8 mph - N/A   Mostly Cloudy
5:48 AM 75.2 °F - 73.4 °F 94% 29.82 in 8.0 mi NNE 9.2 mph - N/A   Mostly Cloudy
6:50 AM 75.2 °F - 71.6 °F 89% 29.82 in 12.0 mi North 5.8 mph - N/A   Mostly Cloudy
7:47 AM 78.8 °F - 62.6 °F 57% 29.82 in 10.0 mi NNE 8.1 mph - N/A   Mostly Cloudy
8:40 AM 80.6 °F 86.2 °F 75.2 °F 84% 29.84 in 12.0 mi NNE 8.1 mph - N/A   Mostly Cloudy
9:00 AM 85 °F - 75 °F 65% 29.85 in - NE 2.2 mph - -  
9:45 AM 78.8 °F - 66.2 °F 65% 29.84 in 15.0 mi North 6.9 mph - N/A   Mostly Cloudy
10:45 AM 84.2 °F 94.1 °F 77.0 °F 79% 29.85 in 15.0 mi NW 4.6 mph - N/A   Mostly Cloudy
11:45 AM 86.0 °F 96.9 °F 77.0 °F 74% 29.84 in 15.0 mi ESE 3.5 mph - N/A   Mostly Cloudy
12:45 PM 87.8 °F 102.5 °F 78.8 °F 75% 29.82 in 15.0 mi SSW 8.1 mph - N/A   Mostly Cloudy
1:43 PM 87.8 °F 102.5 °F 78.8 °F 75% 29.80 in 15.0 mi WSW 9.2 mph - N/A   Mostly Cloudy
2:44 PM 87.8 °F 102.5 °F 78.8 °F 75% 29.78 in 15.0 mi SSW 9.2 mph - N/A   Mostly Cloudy
3:00 PM 89 °F - 76 °F 58% 29.80 in - SW 4.5 mph - -  
3:40 PM 86.0 °F 99.3 °F 78.8 °F 79% 29.76 in 15.0 mi WSW 9.2 mph - N/A   Mostly Cloudy
4:46 PM 86.0 °F 99.3 °F 78.8 °F 79% 29.75 in 15.0 mi SW 8.1 mph - N/A   Mostly Cloudy
5:42 PM 84.2 °F 94.1 °F 77.0 °F 79% 29.75 in 15.0 mi SW 6.9 mph - N/A   Mostly Cloudy
6:00 PM 86 °F - 77 °F 68% 29.77 in - WSW 4.5 mph - -  
6:41 PM 80.6 °F 87.1 °F 77.0 °F 89% 29.76 in 12.0 mi WSW 8.1 mph - N/A   Mostly Cloudy
7:40 PM 78.8 °F - 77.0 °F 94% 29.77 in 12.0 mi West 6.9 mph - N/A   Scattered Clouds
8:44 PM 78.8 °F - 77.0 °F 94% 29.79 in 10.0 mi North 6.9 mph - N/A   Mostly Cloudy
9:49 PM 78.8 °F - 77.0 °F 94% 29.82 in 10.0 mi WNW 11.5 mph - N/A   Mostly Cloudy
10:49 PM 77.0 °F - 75.2 °F 94% 29.82 in 10.0 mi North 8.1 mph - N/A   Mostly Cloudy
11:47 PM 78.8 °F - 75.2 °F 89% 29.81 in 10.0 mi North 8.1 mph - N/A   Mostly Cloudy